FW3177 Weather Reports


time (UTC)temp
F
wind
direction
speed
knots
gust
knots
rain 1hr
in
rain 24hr
in
rain mn
in
humidity
%
barometer
mb
20260504173550 77 38 0.0 1.7 0.00 0.00 0.00 35 1009.7
20260504173054 77 77 0.0 0.9 0.00 0.00 0.00 38 1009.7
20260504172550 76 49 0.0 0.9 0.00 0.00 0.00 39 1009.8
20260504172053 77 65 0.0 1.7 0.00 0.00 0.00 38 1009.9
20260504171548 76 77 0.0 1.7 0.00 0.00 0.00 38 1010.0
20260504171052 76 45 0.0 0.0 0.00 0.00 0.00 38 1010.0
20260504170547 75 44 0.0 0.0 0.00 0.00 0.00 39 1010.1
20260504151027 68 63 0.0 1.7 0.00 0.00 0.00 48 1010.5
20260504150526 67 222 0.0 0.0 0.00 0.00 0.00 52 1010.5
20260504141017 62 222 0.0 0.0 0.00 0.00 0.00 60 1010.2
20260504140517 61 222 0.0 0.0 0.00 0.00 0.00 61 1010.2
20260504130510 59 222 0.0 0.0 0.00 0.00 0.00 62 1009.7
20260504110603 60 222 0.0 0.0 0.00 0.00 0.00 63 1009.7
20260504110120 60 222 0.0 0.0 0.00 0.00 0.00 62 1009.7
20260504100555 61 222 0.0 0.0 0.00 0.00 0.00 59 1009.6
20260504090115 62 222 0.0 0.0 0.00 0.00 0.00 59 1009.6
20260504081542 63 222 0.0 0.0 0.00 0.00 0.00 60 1009.5
20260504081044 64 222 0.0 0.0 0.00 0.00 0.00 57 1009.4
20260504080543 64 222 0.0 0.0 0.00 0.00 0.00 57 1009.5
20260504050533 70 239 0.0 0.0 0.00 0.00 0.00 49 1009.1
20260504045528 70 258 0.0 0.0 0.00 0.00 0.00 50 1009.1
20260504045028 70 258 0.0 0.0 0.00 0.00 0.00 51 1009.0
20260504044538 70 258 0.0 0.0 0.00 0.00 0.00 52 1009.0
20260504044027 70 258 0.0 0.0 0.00 0.00 0.00 52 1009.0
20260504043527 70 258 0.0 0.0 0.00 0.00 0.00 51 1009.0
20260504043033 71 258 0.0 0.0 0.00 0.00 0.00 50 1009.0
20260504042527 71 258 0.0 0.0 0.00 0.00 0.00 49 1008.9
20260504042027 71 258 0.0 0.0 0.00 0.00 0.00 49 1008.9
20260504041527 72 258 0.0 0.0 0.00 0.00 0.00 48 1008.9
20260504041026 72 258 0.0 0.0 0.00 0.00 0.00 48 1008.9
20260504040528 73 258 0.0 0.0 0.00 0.00 0.00 48 1008.9
20260504040026 73 258 0.0 0.0 0.00 0.00 0.00 48 1008.8
20260504035526 73 258 0.0 0.0 0.00 0.00 0.00 49 1008.7
20260504035026 74 258 0.0 0.0 0.00 0.00 0.00 50 1008.7
20260504034536 74 258 0.0 0.0 0.00 0.00 0.00 50 1008.6
20260504034025 74 258 0.0 0.0 0.00 0.00 0.00 49 1008.6
20260504033527 75 258 0.0 0.0 0.00 0.00 0.00 48 1008.6
20260504033036 75 258 0.0 0.0 0.00 0.00 0.00 48 1008.6
20260504032525 76 258 0.0 0.0 0.00 0.00 0.00 47 1008.6
20260504032026 76 258 0.0 0.0 0.00 0.00 0.00 47 1008.6
20260504031525 76 258 0.0 0.0 0.00 0.00 0.00 45 1008.6
20260504031024 77 258 0.0 0.0 0.00 0.00 0.00 44 1008.5
20260504030524 77 258 0.0 0.0 0.00 0.00 0.00 45 1008.5
20260504030024 77 258 0.0 0.0 0.00 0.00 0.00 44 1008.5
20260504025524 78 258 0.0 0.0 0.00 0.00 0.00 44 1008.5
20260504025027 78 258 0.0 0.0 0.00 0.00 0.00 43 1008.4
20260504024524 78 267 0.0 0.0 0.00 0.00 0.00 43 1008.4
20260504024023 79 274 0.0 0.0 0.00 0.00 0.00 43 1008.4
20260504023525 79 280 0.0 0.0 0.00 0.00 0.00 43 1008.4
20260504023023 79 261 0.0 0.0 0.00 0.00 0.00 43 1008.4
20260504022523 80 286 0.0 0.0 0.00 0.00 0.00 43 1008.4
20260504022023 80 275 0.0 7.8 0.00 0.00 0.00 43 1008.4
20260504021531 80 246 1.7 7.8 0.00 0.00 0.00 43 1008.4
20260504021021 80 280 0.9 7.0 0.00 0.00 0.00 43 1008.4
20260504020522 80 252 0.0 7.0 0.00 0.00 0.00 43 1008.4
20260504020021 81 274 2.6 6.1 0.00 0.00 0.00 43 1008.5
20260504015520 81 269 2.6 7.8 0.00 0.00 0.00 43 1008.5
20260504015020 82 271 1.7 10.4 0.00 0.00 0.00 42 1008.5
20260504014520 82 253 2.6 10.4 0.00 0.00 0.00 42 1008.6
20260504014019 82 282 2.6 8.7 0.00 0.00 0.00 42 1008.5
20260504013523 83 276 2.6 6.1 0.00 0.00 0.00 41 1008.6
20260504013028 83 239 3.5 7.8 0.00 0.00 0.00 41 1008.6
20260504012518 83 268 4.3 7.8 0.00 0.00 0.00 41 1008.7
20260504012017 83 249 2.6 7.0 0.00 0.00 0.00 41 1008.7
20260504011517 83 256 3.5 6.1 0.00 0.00 0.00 40 1008.9
20260504011016 84 269 2.6 7.8 0.00 0.00 0.00 39 1008.9
20260504010518 84 255 4.3 7.8 0.00 0.00 0.00 38 1008.9
20260504010014 84 238 3.5 8.7 0.00 0.00 0.00 37 1008.9
20260504005513 84 252 3.5 10.4 0.00 0.00 0.00 37 1009.0
20260504005013 84 288 4.3 9.6 0.00 0.00 0.00 36 1009.0
20260504004513 84 278 4.3 9.6 0.00 0.00 0.00 36 1009.1
20260504004011 84 274 2.6 8.7 0.00 0.00 0.00 35 1009.1
20260504003512 85 276 4.3 8.7 0.00 0.00 0.00 35 1009.1
20260504003011 85 278 3.5 9.6 0.00 0.00 0.00 36 1009.2
20260504002510 85 266 5.2 9.6 0.00 0.00 0.00 36 1009.2
20260504002010 85 264 4.3 9.6 0.00 0.00 0.00 36 1009.2
20260504001510 85 238 3.5 9.6 0.00 0.00 0.00 36 1009.2
20260504001009 85 269 4.3 10.4 0.00 0.00 0.00 36 1009.3
20260504000508 85 257 5.2 10.4 0.00 0.00 0.00 37 1009.3
20260504000007 85 232 4.3 9.6 0.00 0.00 0.00 37 1009.4
20260503235506 85 290 3.5 10.4 0.00 0.00 0.00 37 1009.4
20260503235007 85 271 3.5 10.4 0.00 0.00 0.00 37 1009.5
20260503234505 86 282 4.3 10.4 0.00 0.00 0.00 37 1009.6
20260503234008 86 241 3.5 8.7 0.00 0.00 0.00 37 1009.6
20260503233504 86 265 3.5 9.6 0.00 0.00 0.00 36 1009.7
20260503233003 86 259 3.5 10.4 0.00 0.00 0.00 36 1009.7
20260503232502 86 250 3.5 10.4 0.00 0.00 0.00 35 1009.7
20260503232001 86 276 3.5 9.6 0.00 0.00 0.00 35 1009.8
20260503231502 86 231 4.3 9.6 0.00 0.00 0.00 34 1009.9
20260503231102 86 269 3.5 8.7 0.00 0.00 0.00 34 1010.0
20260503230603 86 280 3.5 11.3 0.00 0.00 0.00 33 1010.0
20260503230059 86 276 3.5 11.3 0.00 0.00 0.00 32 1010.0
20260503225557 86 250 4.3 11.3 0.00 0.00 0.00 30 1010.1
20260503225057 86 255 3.5 7.8 0.00 0.00 0.00 30 1010.2
20260503224556 86 219 2.6 8.7 0.00 0.00 0.00 31 1010.2
20260503224056 86 246 2.6 8.7 0.00 0.00 0.00 30 1010.3
20260503223555 86 290 3.5 8.7 0.00 0.00 0.00 30 1010.4
20260503223055 86 270 0.9 7.8 0.00 0.00 0.00 31 1010.5
20260503222559 85 259 2.6 7.8 0.00 0.00 0.00 29 1010.6
20260503222052 86 268 0.0 6.1 0.00 0.00 0.00 30 1010.6
20260503221553 85 266 2.6 6.1 0.00 0.00 0.00 28 1010.7
20260503221055 86 256 0.0 5.2 0.00 0.00 0.00 29 1010.8
20260503220550 85 250 0.9 7.0 0.00 0.00 0.00 28 1010.8
20260503220105 85 281 1.7 7.0 0.00 0.00 0.00 29 1010.9
20260503215547 85 237 0.0 4.3 0.00 0.00 0.00 30 1011.0
20260503215047 84 271 0.9 5.2 0.00 0.00 0.00 29 1011.0
20260503214547 84 245 0.0 5.2 0.00 0.00 0.00 27 1011.1
20260503214049 84 280 0.0 3.5 0.00 0.00 0.00 30 1011.2
20260503213545 83 259 0.0 3.5 0.00 0.00 0.00 29 1011.2
20260503213048 83 272 0.0 5.2 0.00 0.00 0.00 28 1011.3
20260503212545 83 244 0.9 4.3 0.00 0.00 0.00 27 1011.4
20260503212042 84 261 0.9 4.3 0.00 0.00 0.00 29 1011.4
20260503211558 83 257 0.9 4.3 0.00 0.00 0.00 30 1011.5
20260503211044 83 251 0.9 5.2 0.00 0.00 0.00 30 1011.5
20260503210541 83 278 0.9 5.2 0.00 0.00 0.00 31 1011.6
20260503210040 83 283 0.0 5.2 0.00 0.00 0.00 31 1011.6
20260503205539 83 257 0.0 4.3 0.00 0.00 0.00 32 1011.8
20260503205038 82 265 0.9 4.3 0.00 0.00 0.00 30 1011.8
20260503204538 82 254 0.0 2.6 0.00 0.00 0.00 31 1011.9
20260503204036 82 272 0.0 1.7 0.00 0.00 0.00 32 1012.0
20260503203538 82 311 0.0 1.7 0.00 0.00 0.00 34 1012.1
20260503203036 81 271 0.0 2.6 0.00 0.00 0.00 34 1012.2
20260503202534 80 269 0.0 4.3 0.00 0.00 0.00 34 1012.3
20260503202034 81 233 0.0 4.3 0.00 0.00 0.00 34 1012.3
20260503201533 81 269 0.0 1.7 0.00 0.00 0.00 32 1012.4
20260503201031 81 283 0.0 3.5 0.00 0.00 0.00 33 1012.5
20260503200530 81 238 0.0 0.0 0.00 0.00 0.00 31 1012.6
20260503200033 80 238 0.0 0.9 0.00 0.00 0.00 33 1012.7
20260503195528 80 252 0.0 1.7 0.00 0.00 0.00 32 1012.8
20260503195028 81 253 0.0 0.9 0.00 0.00 0.00 33 1012.8
20260503194531 80 247 0.0 2.6 0.00 0.00 0.00 32 1012.9
20260503194028 80 248 0.0 2.6 0.00 0.00 0.00 34 1012.9
20260503193530 80 143 0.0 0.0 0.00 0.00 0.00 33 1013.0
20260503193026 80 139 0.0 0.0 0.00 0.00 0.00 32 1013.0
20260503192525 79 114 0.0 0.0 0.00 0.00 0.00 34 1013.1
20260503192026 81 154 0.0 0.0 0.00 0.00 0.00 34 1013.1
20260503191526 80 259 0.0 0.0 0.00 0.00 0.00 37 1013.0
20260503191023 80 259 0.0 0.0 0.00 0.00 0.00 35 1013.1
20260503190522 79 267 0.0 0.0 0.00 0.00 0.00 35 1013.1
20260503190023 79 117 0.0 0.0 0.00 0.00 0.00 34 1013.2
20260503185520 78 150 0.0 0.0 0.00 0.00 0.00 37 1013.3
20260503185020 78 277 0.0 0.0 0.00 0.00 0.00 37 1013.4
20260503184525 78 276 0.0 0.0 0.00 0.00 0.00 37 1013.4
20260503184019 78 71 0.0 0.0 0.00 0.00 0.00 37 1013.3
20260503183522 77 352 0.0 0.0 0.00 0.00 0.00 36 1013.4
20260503183027 77 23 0.0 0.0 0.00 0.00 0.00 36 1013.5
20260503182516 77 70 0.0 0.0 0.00 0.00 0.00 35 1013.5
20260503182016 77 304 0.0 0.0 0.00 0.00 0.00 39 1013.6
20260503181526 77 101 0.0 0.0 0.00 0.00 0.00 39 1013.7
20260503181014 76 120 0.0 0.0 0.00 0.00 0.00 37 1013.8
20260503180513 75 222 0.0 0.0 0.00 0.00 0.00 38 1013.9
20260503180013 76 77 0.0 0.0 0.00 0.00 0.00 37 1014.0
20260503175510 75 25 0.0 0.0 0.00 0.00 0.00 39 1014.0
20260503175010 75 41 0.0 0.0 0.00 0.00 0.00 38 1014.2
20260503174508 74 33 0.0 0.0 0.00 0.00 0.00 39 1014.3
20260503174006 74 77 0.0 0.0 0.00 0.00 0.00 42 1014.3